Location: Byszew
(52.1813°N, 19.2693°E)
Time: 14:38:12
(UTC+00:00)

Cosmos 2333 Rocket - Pass Details

Date: 03 March 2021
Orbit: 837 x 864 km, 70.8° (Epoch: 13 April)

Event Time Altitude Azimuth Distance (km) Brightness Sun altitude
Rises 20:33:51 0° 246° (WSW) 3,404 5.6 -35.9°
Reaches altitude 10° 20:36:34 10° 257° (WSW) 2,476 4.9 -36.2°
Maximum altitude 20:41:35 31° 319° (NW) 1,457 3.8 -36.8°
Drops below altitude 10° 20:46:40 10° 21° (NNE) 2,503 4.9 -37.3°
Sets 20:49:27 0° 31° (NNE) 3,447 5.6 -37.6°
